星链-3125 (STARLINK-3125 )

导读 | 豆包AI

STARLINK-3125是美国SpaceX星链星座的成员,于2021年11月13日发射入轨,星链系统依托低轨卫星星座为全球提供高速互联网服务,这款卫星遵循星链第二代技术标准部署,旨在补充完善全球覆盖的卫星通信网络,满足偏远地区、移动场景等无地面网络覆盖区域的联网需求,也在应急通信等场景发挥作用。

Basic Information
目录编号:
49451
目录名称:
STARLINK-3125
国际标识:
2021-104AV
轨道中心:
EARTH
卫星名称:
星链-3125
卫星全名:
星链-3125 (STARLINK-3125 )
卫星状态:
在轨 (已飞行1629 天)
发射日期:
2021-11-13 UTC
国别 :
美国 (US)
星等 :
--
Orbit Information
数据来源 国际轨道数据 AOE轨道数据
星历时间 2026-04-30T22:41:11+0800
9小时前
查看轨道信息
2026-04-30T18:00:00+0800
13小时前
查看轨道信息
半长轴 6917.872km 6917.827km
偏心率 0.0001327 0.0001547
轨道倾角 53.218° 53.217°
近地点辐角 85.587° 70.428°
升交点赤经 346.033° 346.907°
平近点角 274.528° 308.464°
近地点 538.816km 538.619km
远地点 540.654km 540.761km
周期 95.437分钟 95.436分钟
每日圈数 15.088429 15.088577
Detailed Information
固有亮度:
5
最大亮度:
2.5
卫星平台:
Starlink v1.5
覆盖范围:
全球
运营商:
太空探索技术公司
运营商所在国:
美国
制造商(研发单位):
太空探索技术公司
制造商所在国:
美国
使用方式:
暂无
Satellite Introduction
星链(Starlink)计划是由太空探索技术公司(SpaceX)提出的一个巨型低轨卫星互联网星座项目,计划在2019年至2024年间在太空搭建由约1.2万颗卫星组成的“星链”网络,其中1584颗将部署在地球上空550千米处的近地轨道,并从2020年开始工作。该卫星仍在工作。
2D Orbit Map
3D Orbit Map
Orbit Altitude Analysis Chart
Orbit Inclination Analysis Chart
Orbit Comprehensive Analysis Chart
View Comprehensive Chart